Temperature
21 20 20 20 19 19 20 20 20 21 21 21 21 21 20 19 20 20 20 20 20 20 20 20 20 20 20 20 20 20 20 20 20 20 19 19 19 19 19 19 19 19 19 19 19 19 19 19 19
21 21 20 20 19 19 20 20 20 21 22 22 21 21 20 19 19 20 20 20 20 20 20 20 20 20 20 20 20 20 20 20 20 20 19 19 19 19 19 19 19 19 19 19 19 19 19 18 18
22 21 21 19 19 19 20 20 20 21 21 22 21 20 19 19 19 20 20 20 20 20 20 20 20 20 20 20 20 20 20 20 20 20 19 19 19 19 19 19 19 19 19 19 19 19 18 18 18
22 22 21 19 20 19 20 20 20 21 21 21 20 19 19 18 19 20 20 20 20 20 20 20 19 19 19 19 19 20 20 20 20 19 19 19 19 19 19 19 19 19 19 19 19 18 18 18 18
22 22 19 20 20 19 19 19 20 20 20 19 20 19 18 18 19 19 19 19 19 19 19 19 19 19 19 19 19 19 19 19 19 19 19 19 19 19 19 19 19 19 19 19 19 18 18 18 18
22 21 19 20 20 19 19 19 20 19 20 19 19 18 17 18 19 19 19 19 18 18 18 18 18 18 18 19 19 19 19 19 19 19 19 19 19 19 19 19 19 19 19 19 19 18 18 18 18
22 19 20 19 19 19 19 19 18 18 18 18 18 18 18 18 18 19 18 18 18 18 18 18 18 18 18 18 18 18 18 19 19 19 19 19 19 19 19 19 19 19 19 19 18 18 18 18 18
23 19 20 19 19 19 19 19 18 18 18 18 18 17 17 17 18 18 18 18 18 18 18 18 18 18 18 18 18 18 18 18 18 18 18 18 18 19 19 19 19 19 19 19 18 18 18 18 18
23 19 20 19 19 19 18 18 18 18 18 17 17 17 16 17 17 17 17 17 17 17 17 17 17 17 18 18 18 18 18 18 18 18 18 18 18 18 18 18 18 18 18 18 18 18 18 18 18
23 19 20 19 19 18 18 18 18 18 17 17 17 17 17 17 17 17 17 17 17 17 17 17 17 17 17 17 17 18 18 18 18 18 18 18 18 18 18 18 18 18 18 18 18 18 18 18 18
21 19 19 19 18 18 17 17 17 18 16 17 16 16 17 17 17 17 17 17 17 17 17 17 17 17 17 17 17 17 17 18 18 18 18 18 18 17 17 18 18 18 18 18 18 18 18 18 18
19 19 19 19 19 18 18 17 17 17 17 17 17 17 17 17 17 16 16 16 16 16 17 17 17 17 17 17 17 17 17 17 17 17 17 18 18 18 18 17 18 18 18 18 18 18 18 18 18
19 19 18 18 19 18 18 17 17 16 17 17 17 17 17 16 16 16 16 16 16 16 16 16 16 16 16 16 16 17 17 17 17 17 17 17 17 18 18 18 18 18 18 18 18 18 18 18 18
19 18 18 18 18 18 17 17 17 16 17 17 17 16 16 16 16 16 15 15 15 15 15 15 15 15 16 16 16 16 16 16 17 17 17 17 17 17 17 17 18 18 18 18 18 18 18 18 18
19 18 18 18 18 18 18 17 16 16 17 16 16 16 16 15 15 15 15 14 14 14 14 14 14 15 15 15 15 15 16 16 16 16 16 16 17 17 17 17 17 18 18 18 18 17 17 18 18
19 18 18 18 18 18 18 17 16 16 16 16 16 15 15 15 15 15 14 14 14 14 14 14 14 14 14 14 14 15 15 15 15 16 16 16 16 16 17 17 17 17 17 17 17 17 17 17 17
19 19 19 18 18 17 17 16 16 16 16 15 15 15 15 15 15 14 14 14 13 13 13 13 13 13 14 14 14 14 14 14 15 15 15 15 16 16 16 16 17 17 17 17 17 17 17 17 17
20 20 19 18 17 17 16 15 15 16 16 15 15 15 15 15 14 14 14 14 13 13 13 13 13 13 13 13 14 14 14 14 14 14 15 15 15 15 16 16 16 16 17 17 17 17 17 17 17
21 20 19 18 18 17 16 15 15 15 15 14 14 15 15 14 14 14 14 13 13 13 13 13 13 13 13 13 13 14 14 14 14 14 14 14 15 15 15 15 16 16 16 17 17 17 17 17 17
19 19 18 18 17 16 15 15 15 15 15 15 15 15 15 14 14 14 14 13 13 13 13 13 13 13 13 13 13 13 13 13 13 13 14 14 14 14 15 15 15 16 16 16 16 16 16 17 17
19 19 18 18 16 15 15 15 15 15 15 15 15 15 14 14 14 14 14 13 13 13 13 12 12 12 12 12 13 13 13 13 13 13 13 13 14 14 14 15 15 15 15 16 16 16 16 16 17
19 19 19 18 16 15 16 14 14 13 14 14 14 14 14 14 14 14 14 13 13 13 13 12 12 12 12 12 12 12 12 12 13 13 13 13 13 14 14 14 15 15 15 15 16 16 16 16 16
19 18 18 17 16 15 15 14 13 13 13 13 14 14 14 14 14 14 14 13 13 13 13 13 12 12 12 12 12 12 12 12 12 13 13 13 13 13 14 14 14 15 15 15 15 15 16 16 16
18 16 15 13 13 15 15 14 14 12 13 13 14 14 15 14 14 14 14 14 13 13 13 13 12 12 12 12 12 12 12 12 12 13 13 13 13 13 13 13 14 14 14 15 15 15 15 15 16
16 15 14 15 14 14 15 14 14 14 13 14 14 15 15 15 14 14 14 14 14 13 13 13 12 12 12 12 12 12 12 12 12 12 12 12 13 13 13 13 13 14 14 14 14 15 15 15 15
16 15 14 16 14 14 14 14 14 15 15 15 15 15 15 15 15 14 14 14 14 14 13 13 12 12 12 12 11 11 11 11 11 12 12 12 12 12 12 13 13 13 13 14 14 14 15 15 15
16 14 14 13 14 14 13 14 14 14 14 14 14 14 15 15 15 15 15 14 14 14 13 13 12 12 12 11 11 11 11 11 11 11 11 12 12 12 12 12 13 13 13 13 13 14 14 14 14
16 13 12 13 15 14 14 14 14 15 14 13 13 14 15 15 15 15 15 15 14 14 14 13 13 12 12 11 11 11 11 11 11 11 11 11 12 12 12 12 12 13 13 13 13 13 13 14 14
16 14 12 11 12 13 13 14 14 15 14 13 13 15 15 15 15 15 15 15 15 14 14 13 13 12 12 12 11 11 11 11 11 11 11 11 11 11 12 12 12 12 12 13 13 13 13 13 13
17 16 12 14 13 11 12 12 14 14 14 14 15 16 15 15 15 15 15 15 15 15 14 14 13 13 12 12 11 11 11 11 11 11 11 11 11 11 11 11 12 12 12 12 12 13 13 13 13
Wind_Speed
9 8 3 2 5 5 5 7 5 5 4 3 5 6 6 5 2 1 1 6 7 7 8 10 10 9 9 8 8 8 8 7 7 7 7 6 6 6 5 5 4 4 4 4 3 4 4 4 4
8 5 2 4 5 4 5 6 7 6 2 1 5 6 7 6 3 2 2 4 7 8 9 9 9 9 9 8 8 8 7 7 7 6 6 6 5 5 4 4 3 3 3 3 3 3 3 2 2
7 3 3 4 4 3 2 4 3 4 8 5 4 6 5 5 3 0 2 6 6 7 8 8 10 9 9 8 8 8 7 7 7 6 6 6 5 4 4 3 3 3 3 3 3 2 3 2 1
4 4 4 6 6 3 2 4 5 4 7 9 4 5 5 7 7 1 4 7 6 4 6 7 10 9 9 9 8 8 8 7 7 7 6 6 6 5 4 4 3 3 3 3 3 3 3 2 1
4 4 6 5 4 3 4 6 7 6 4 7 5 5 4 9 10 7 6 5 3 2 2 4 8 9 9 9 9 9 9 8 8 8 8 7 7 6 6 5 5 4 4 3 3 4 4 3 2
4 4 5 3 3 2 3 5 5 6 5 6 6 4 4 8 11 8 8 7 5 4 3 3 5 7 9 10 10 10 10 10 10 10 10 9 9 8 8 7 6 6 5 5 4 4 5 5 4
4 4 5 5 3 1 0 3 4 5 6 7 6 4 3 8 9 8 9 10 9 8 7 6 6 6 6 9 11 12 12 12 12 12 11 11 10 10 10 9 8 8 7 6 6 6 6 6 5
5 5 5 3 4 3 0 2 4 6 4 5 5 5 4 5 6 7 9 10 9 8 7 8 10 10 9 9 10 11 12 13 14 14 13 13 12 12 12 11 10 10 9 8 8 7 7 7 6
4 5 3 5 6 4 2 3 3 4 5 6 6 5 4 5 7 9 9 9 8 8 6 6 8 10 10 10 10 11 11 12 13 14 14 14 13 12 12 12 12 12 11 10 9 9 8 7 6
4 4 3 2 4 6 4 4 3 4 6 6 6 8 8 8 9 11 10 9 8 8 7 5 6 7 8 8 9 10 9 9 9 10 11 11 12 13 12 12 14 14 13 12 11 10 9 7 4
5 5 4 4 5 6 5 3 3 5 5 3 4 4 6 9 10 9 8 6 6 5 7 7 6 7 7 6 7 7 8 8 8 8 8 9 9 10 10 9 10 12 12 11 10 9 8 5 4
6 5 5 5 4 5 5 4 4 4 3 3 5 5 6 8 8 7 7 6 6 6 7 8 6 6 7 7 6 6 5 5 6 7 7 6 4 5 6 7 8 9 9 8 8 7 7 7 7
5 4 5 8 10 7 7 6 5 4 4 6 8 8 8 7 6 6 5 6 6 7 8 8 7 6 6 5 5 5 5 5 6 7 7 6 4 5 4 5 7 8 9 7 6 6 6 6 6
6 8 7 7 7 4 6 4 4 2 4 7 8 8 7 7 6 6 7 7 7 8 9 8 8 6 6 5 4 5 6 7 7 6 7 7 6 5 5 5 5 6 8 8 7 6 5 5 4
6 7 6 3 3 3 6 5 2 3 6 7 7 6 6 6 6 5 5 6 7 7 8 8 8 7 7 7 6 6 7 7 6 6 8 8 7 6 4 4 5 5 8 8 7 6 4 4 4
5 5 2 3 3 3 3 3 2 3 7 7 5 5 5 4 4 5 6 6 6 7 8 8 9 9 9 8 7 6 7 6 6 7 7 8 8 7 4 4 5 6 6 5 5 5 5 5 4
3 2 3 3 5 4 4 4 3 3 7 6 4 3 3 4 5 6 6 6 7 7 8 8 9 9 10 9 7 7 6 5 6 6 6 7 7 7 5 4 4 5 4 5 6 5 5 4 4
4 4 3 4 5 4 4 3 3 3 5 5 3 1 1 3 5 7 6 7 7 7 7 8 9 9 9 8 6 5 5 5 5 5 6 7 7 7 5 4 5 4 4 5 5 5 5 4 4
4 4 2 1 3 4 4 3 4 3 4 4 3 1 1 3 6 6 7 7 7 8 8 8 9 9 8 6 6 6 6 6 6 5 7 7 7 6 4 4 4 4 5 6 6 5 5 5 4
6 4 3 3 3 3 2 2 3 3 4 5 4 3 2 4 6 7 7 7 7 8 8 8 8 9 8 6 5 4 5 5 5 5 6 7 7 6 4 4 4 5 5 6 6 5 4 4 5
4 3 3 3 3 4 3 4 4 3 2 2 3 3 3 4 6 7 8 7 7 8 8 8 9 9 8 8 6 6 4 4 4 6 6 6 7 7 5 5 4 5 5 6 6 7 7 5 5
1 1 2 4 3 1 1 4 6 5 3 4 5 4 5 5 6 7 8 8 8 7 7 8 8 8 8 7 7 7 6 5 5 6 6 8 6 6 5 5 4 5 5 6 7 7 6 6 5
3 3 4 3 4 2 1 2 7 1 6 8 7 6 6 6 7 8 8 8 7 7 7 7 8 7 8 8 7 7 6 5 6 6 8 7 6 6 6 5 4 5 5 6 7 6 8 7 7
5 6 6 6 5 2 2 4 7 4 7 6 6 7 7 7 7 8 7 7 7 7 6 6 7 7 8 8 8 7 8 8 9 8 9 8 6 6 7 6 5 4 4 6 7 7 8 8 8
7 6 5 5 5 4 3 3 8 6 7 7 7 8 7 7 7 8 8 8 8 8 7 6 7 7 8 8 8 7 8 7 8 7 7 7 6 5 8 8 6 5 5 5 5 6 7 8 8
3 6 6 2 3 5 3 5 7 4 3 4 6 6 6 7 7 8 8 7 7 8 7 6 6 6 7 7 7 7 7 5 5 6 6 6 6 6 8 8 7 7 7 6 4 4 5 5 7
4 3 5 6 1 3 6 7 7 1 1 3 5 6 7 8 8 8 8 7 7 7 6 5 5 6 6 7 6 7 7 6 7 7 6 5 6 6 8 8 8 8 7 7 6 3 4 3 4
4 7 5 4 1 4 8 6 5 6 8 7 8 8 9 8 8 8 8 6 6 5 5 4 4 4 5 5 5 5 6 6 6 6 7 7 8 7 8 9 9 9 8 8 6 4 4 2 2
4 4 5 4 4 4 4 7 6 7 7 8 10 9 9 9 8 8 7 6 6 6 5 4 4 4 4 5 5 6 6 6 6 5 6 6 7 8 8 8 9 9 9 9 7 7 5 3 2
4 5 6 4 2 4 3 8 7 7 8 8 9 9 8 8 7 7 7 7 6 6 5 5 4 4 4 4 4 5 5 5 6 6 6 6 7 7 7 8 8 8 9 9 8 8 7 5 4
Wind_Direction
152 133 108 75 50 50 27 348 351 23 48 36 46 64 77 63 66 103 340 139 141 143 163 168 168 169 171 170 167 167 165 164 161 160 159 157 155 152 150 148 147 147 146 145 147 142 136 121 105
135 127 95 60 70 56 10 354 18 21 62 108 49 53 62 54 44 84 123 148 145 150 159 168 174 174 176 178 178 177 177 177 176 175 173 171 168 164 161 158 158 159 163 164 166 169 166 149 112
137 114 88 65 67 88 42 352 6 27 35 37 53 47 53 29 3 145 178 144 141 152 161 174 181 182 184 187 188 189 190 191 191 191 189 187 185 181 180 179 178 179 185 190 190 197 198 194 144
118 58 56 66 65 35 25 337 330 0 30 25 49 53 55 16 342 353 117 133 140 146 168 188 191 194 196 198 199 200 202 204 205 207 206 205 204 203 202 204 203 202 207 213 215 223 225 231 231
72 82 62 58 50 32 9 359 11 34 44 22 38 63 34 3 7 51 84 103 119 125 180 218 212 211 213 214 214 214 216 217 219 220 221 220 220 219 218 218 219 220 224 228 232 242 242 244 251
68 74 80 86 62 33 350 353 13 25 31 20 21 64 57 11 17 28 55 55 51 41 20 319 266 246 234 231 229 227 227 228 230 230 230 229 228 226 226 225 226 228 232 236 238 245 249 253 262
113 93 109 132 139 173 235 3 29 6 27 12 358 61 48 18 19 35 52 57 52 39 19 2 346 325 297 272 257 246 240 238 237 236 235 236 233 231 231 231 232 233 234 238 242 244 249 255 261
129 101 103 150 166 184 39 50 55 30 28 8 22 55 31 7 20 46 53 53 50 42 25 11 359 356 350 332 306 283 266 256 248 243 240 240 238 237 235 235 236 238 238 239 242 245 248 254 260
101 84 149 191 179 152 99 87 68 49 52 43 44 54 52 38 43 49 46 41 34 25 13 9 1 357 352 342 331 320 300 285 273 259 251 246 240 237 239 240 238 240 242 242 243 245 249 252 258
80 119 173 157 144 128 100 74 85 70 50 45 50 46 51 51 50 51 44 34 23 9 357 355 347 342 341 339 331 326 318 309 298 280 267 256 242 235 237 242 244 244 243 243 243 243 247 250 247
77 115 119 90 101 108 102 80 48 103 60 45 72 53 44 54 51 49 39 27 11 353 352 349 342 339 336 327 324 320 321 316 311 301 285 270 255 243 236 232 245 250 249 243 242 242 238 230 226
89 63 93 117 103 91 106 109 82 68 107 106 101 95 72 61 50 43 33 17 0 357 348 342 338 337 338 335 323 311 315 313 310 301 291 274 259 245 232 224 225 232 240 232 220 218 220 221 225
85 95 66 91 88 90 91 87 98 71 89 99 94 80 72 65 51 36 28 16 4 354 344 339 337 335 335 333 325 326 311 303 297 294 290 272 251 249 241 234 226 226 229 229 220 214 214 214 219
94 91 90 78 79 83 98 78 85 100 101 93 84 77 67 57 44 27 13 2 353 344 338 334 337 335 337 327 313 303 301 300 300 292 285 275 258 249 244 236 228 227 227 225 220 215 211 214 209
97 87 71 66 82 118 106 63 71 131 108 92 79 73 61 46 34 19 355 343 336 331 330 332 334 342 335 325 313 312 302 299 294 292 292 285 270 259 250 243 238 233 229 225 221 211 204 213 213
85 94 124 201 146 148 129 181 176 137 117 103 87 67 52 24 7 348 340 334 332 332 332 330 339 336 329 323 313 308 305 300 292 292 293 291 284 268 251 243 241 238 232 223 217 205 206 215 213
82 153 205 189 176 147 160 195 183 134 127 122 110 72 42 2 343 330 329 331 333 331 329 331 333 334 331 324 317 310 308 303 300 298 295 292 288 274 250 243 243 238 229 227 226 204 197 205 218
197 200 206 203 176 136 157 185 153 137 137 144 142 97 19 344 319 312 321 329 331 329 330 332 334 335 334 330 327 323 321 317 314 308 303 301 295 284 258 243 242 233 229 228 222 212 195 192 203
146 150 165 136 131 136 174 183 187 158 151 163 173 166 310 310 306 316 323 327 332 334 337 336 338 337 342 343 339 333 329 322 321 314 313 310 304 294 268 254 244 231 228 229 221 213 208 203 173
94 116 121 71 66 104 138 235 225 197 196 193 187 198 255 305 322 324 325 330 332 328 331 335 336 334 339 338 325 306 302 302 301 308 318 319 316 308 292 260 247 236 232 234 225 207 199 202 176
68 137 168 150 74 58 74 321 242 228 177 175 195 221 256 284 300 309 317 320 326 327 328 332 330 332 334 338 334 330 327 319 332 335 332 324 321 312 300 285 265 246 229 230 223 207 199 201 196
108 4 132 130 111 322 93 294 280 232 231 224 227 246 265 282 290 297 306 313 317 315 321 326 329 332 335 342 349 352 349 338 322 320 317 321 323 322 317 300 279 264 245 236 228 214 206 193 197
132 60 75 97 121 38 22 208 292 216 248 244 232 239 257 272 281 290 298 302 307 313 321 325 333 337 341 345 347 346 344 329 320 327 335 341 340 336 337 322 301 284 263 248 238 223 211 205 198
107 70 56 51 70 350 238 183 283 234 227 237 220 228 249 268 283 292 300 310 311 316 324 333 340 338 343 346 349 352 348 344 348 351 350 348 343 343 350 341 329 309 284 263 249 233 221 216 209
65 76 29 5 9 269 269 210 254 259 229 218 208 218 240 260 276 290 304 313 312 316 323 331 338 334 339 346 350 350 349 349 353 350 350 352 351 349 349 350 345 336 316 290 266 247 237 225 220
75 119 141 198 254 293 317 249 258 272 250 209 201 210 236 259 271 281 289 296 299 306 320 327 331 327 335 344 342 347 354 355 351 351 353 356 351 344 349 353 354 351 347 338 312 269 250 236 230
109 99 149 131 180 291 293 290 306 201 239 205 212 223 241 256 270 279 289 297 298 303 310 314 317 320 329 336 337 345 353 357 354 353 355 355 353 353 356 357 358 356 354 348 337 316 300 266 238
107 139 96 104 110 308 304 293 271 266 251 237 230 231 242 255 270 282 289 294 298 295 296 309 306 307 314 328 334 339 344 349 351 358 2 358 354 355 356 359 359 358 358 355 349 333 324 320 292
119 91 100 105 141 156 298 284 231 236 243 232 231 227 233 244 260 275 286 294 298 299 298 301 302 310 319 329 333 340 342 347 355 360 356 351 352 355 358 356 356 357 358 356 357 354 349 342 335
164 159 146 144 197 165 197 270 265 249 254 234 234 231 232 239 254 269 283 296 304 303 299 291 286 292 299 315 328 333 339 348 354 351 347 348 351 352 353 352 355 355 354 354 357 356 355 352 351
Height
1529 1530 1532 1534 1536 1544 1548 1544 1538 1536 1535 1536 1534 1534 1535 1539 1542 1546 1542 1541 1543 1545 1546 1548 1549 1551 1552 1553 1554 1554 1555 1555 1556 1556 1556 1556 1556 1557 1557 1557 1557 1557 1557 1558 1558 1558 1558 1559 1559
1530 1531 1534 1535 1542 1556 1553 1545 1542 1539 1537 1536 1536 1536 1537 1540 1541 1542 1542 1542 1544 1546 1547 1549 1550 1551 1552 1553 1554 1554 1555 1555 1555 1555 1556 1556 1556 1556 1556 1556 1556 1556 1557 1557 1557 1558 1558 1558 1559
1530 1532 1535 1537 1547 1555 1552 1545 1543 1540 1539 1538 1539 1539 1541 1544 1544 1544 1544 1544 1546 1547 1549 1550 1551 1552 1553 1553 1553 1554 1554 1554 1555 1555 1555 1555 1555 1555 1555 1555 1556 1556 1556 1556 1557 1557 1558 1558 1559
1532 1535 1537 1543 1551 1551 1548 1546 1542 1541 1540 1540 1541 1543 1545 1547 1547 1546 1546 1546 1547 1549 1550 1551 1551 1552 1553 1553 1553 1554 1554 1554 1554 1554 1554 1554 1554 1554 1554 1555 1555 1555 1555 1555 1556 1556 1557 1557 1558
1533 1535 1542 1550 1552 1550 1548 1545 1543 1543 1544 1544 1543 1546 1548 1549 1548 1548 1548 1548 1549 1550 1551 1551 1552 1552 1552 1553 1553 1553 1553 1553 1553 1553 1553 1553 1553 1553 1553 1553 1554 1554 1554 1554 1554 1555 1556 1556 1557
1534 1536 1550 1557 1554 1551 1549 1548 1546 1546 1546 1546 1547 1548 1551 1551 1550 1550 1549 1550 1550 1550 1551 1551 1551 1551 1551 1552 1552 1552 1552 1552 1551 1551 1551 1551 1552 1552 1552 1552 1552 1553 1553 1553 1553 1554 1554 1555 1556
1535 1539 1550 1554 1555 1553 1551 1549 1550 1550 1550 1550 1549 1550 1552 1552 1551 1551 1550 1550 1550 1550 1550 1551 1551 1550 1550 1550 1550 1550 1550 1550 1550 1549 1549 1550 1550 1550 1551 1551 1551 1551 1551 1552 1552 1552 1553 1554 1555
1533 1539 1550 1553 1554 1553 1551 1551 1552 1552 1552 1553 1552 1553 1554 1554 1553 1552 1551 1551 1551 1550 1550 1550 1549 1549 1548 1548 1548 1548 1548 1547 1548 1548 1547 1547 1548 1548 1549 1549 1550 1550 1550 1550 1551 1551 1552 1553 1554
1533 1543 1552 1551 1551 1551 1551 1552 1554 1555 1554 1554 1555 1556 1557 1555 1554 1553 1552 1551 1551 1550 1550 1549 1548 1547 1546 1546 1545 1545 1545 1545 1545 1545 1545 1545 1545 1546 1547 1547 1548 1548 1548 1549 1549 1549 1550 1551 1552
1533 1545 1546 1545 1546 1549 1551 1553 1555 1556 1556 1557 1558 1558 1557 1556 1555 1554 1553 1553 1552 1551 1550 1549 1547 1546 1545 1543 1543 1542 1542 1542 1542 1542 1542 1542 1543 1543 1544 1544 1545 1546 1546 1547 1547 1548 1548 1549 1550
1535 1542 1544 1546 1547 1549 1551 1554 1555 1556 1559 1559 1559 1559 1559 1558 1557 1556 1555 1554 1553 1552 1550 1548 1546 1545 1543 1542 1540 1539 1539 1538 1538 1539 1539 1539 1539 1540 1540 1541 1542 1543 1544 1544 1545 1546 1546 1547 1548
1538 1543 1544 1547 1548 1550 1552 1554 1556 1557 1560 1560 1560 1560 1559 1558 1558 1557 1556 1555 1553 1551 1549 1547 1545 1543 1541 1539 1538 1537 1535 1535 1534 1534 1535 1535 1535 1536 1537 1538 1539 1540 1541 1542 1542 1543 1544 1545 1546
1540 1545 1546 1548 1549 1551 1553 1555 1557 1559 1560 1561 1561 1560 1560 1559 1559 1558 1556 1555 1552 1550 1547 1545 1542 1540 1538 1536 1534 1533 1532 1531 1530 1530 1531 1531 1531 1532 1532 1533 1535 1536 1537 1539 1539 1541 1541 1542 1543
1542 1546 1549 1551 1551 1553 1555 1557 1559 1561 1561 1561 1561 1561 1561 1560 1559 1558 1556 1553 1551 1548 1545 1542 1539 1536 1534 1532 1530 1529 1528 1527 1526 1526 1526 1526 1527 1528 1528 1529 1530 1531 1533 1534 1535 1537 1538 1539 1541
1544 1548 1552 1553 1553 1555 1556 1561 1561 1561 1561 1561 1562 1561 1561 1560 1559 1557 1555 1552 1549 1546 1543 1539 1536 1533 1530 1528 1526 1524 1523 1523 1522 1522 1522 1522 1522 1523 1524 1525 1526 1527 1529 1530 1532 1533 1534 1536 1537
1546 1552 1557 1555 1554 1556 1560 1565 1562 1562 1561 1561 1562 1562 1561 1561 1559 1557 1555 1552 1548 1545 1541 1537 1534 1530 1527 1524 1522 1520 1519 1518 1518 1518 1518 1518 1518 1518 1519 1520 1521 1523 1524 1526 1527 1529 1530 1532 1534
1551 1557 1557 1556 1554 1556 1559 1562 1561 1561 1561 1561 1562 1562 1561 1561 1559 1557 1554 1551 1548 1544 1540 1536 1532 1528 1525 1522 1519 1517 1515 1514 1514 1513 1513 1513 1514 1514 1515 1516 1517 1518 1520 1521 1523 1524 1526 1528 1530
1554 1554 1555 1556 1554 1556 1559 1561 1560 1561 1561 1561 1562 1561 1561 1560 1559 1556 1554 1551 1547 1543 1539 1535 1531 1527 1524 1520 1518 1515 1513 1511 1510 1509 1509 1509 1509 1510 1510 1511 1512 1514 1515 1517 1518 1520 1522 1524 1526
1545 1550 1555 1555 1553 1556 1560 1561 1561 1561 1561 1561 1561 1561 1560 1560 1558 1556 1553 1550 1546 1543 1539 1535 1531 1527 1523 1519 1516 1513 1510 1509 1507 1506 1505 1505 1505 1505 1506 1507 1508 1509 1510 1512 1514 1516 1517 1519 1521
1548 1554 1556 1556 1555 1558 1561 1562 1560 1560 1560 1560 1560 1560 1560 1559 1557 1555 1553 1549 1546 1542 1539 1535 1531 1527 1523 1519 1516 1513 1510 1507 1505 1503 1502 1502 1501 1501 1501 1502 1503 1505 1506 1507 1509 1511 1512 1514 1517
1551 1555 1556 1558 1559 1560 1563 1565 1561 1559 1559 1559 1559 1559 1559 1558 1557 1555 1552 1549 1546 1542 1539 1535 1532 1528 1524 1520 1517 1513 1510 1507 1504 1502 1500 1499 1498 1497 1497 1498 1499 1500 1501 1502 1504 1506 1508 1510 1511
1555 1551 1552 1556 1564 1569 1566 1577 1562 1559 1558 1558 1558 1558 1558 1557 1556 1554 1552 1549 1546 1543 1539 1536 1532 1529 1525 1521 1518 1514 1510 1507 1504 1501 1499 1497 1496 1495 1494 1494 1495 1496 1496 1498 1499 1501 1503 1505 1506
1552 1551 1553 1556 1563 1571 1570 1575 1567 1560 1560 1557 1556 1556 1556 1556 1555 1553 1551 1549 1546 1543 1540 1536 1533 1529 1526 1522 1519 1515 1512 1508 1505 1502 1499 1497 1495 1494 1492 1492 1491 1491 1492 1493 1494 1495 1497 1499 1501
1550 1555 1560 1566 1571 1579 1570 1576 1570 1563 1557 1553 1553 1554 1554 1555 1554 1552 1550 1548 1546 1543 1539 1536 1533 1530 1526 1523 1520 1516 1513 1509 1506 1503 1500 1497 1495 1493 1491 1490 1489 1488 1488 1488 1489 1490 1492 1493 1495
1554 1565 1579 1578 1585 1581 1569 1572 1567 1552 1550 1550 1550 1551 1553 1553 1552 1551 1549 1547 1545 1542 1539 1536 1533 1530 1527 1524 1520 1517 1514 1510 1507 1504 1501 1498 1495 1493 1491 1489 1487 1486 1485 1485 1485 1485 1486 1488 1489
1558 1565 1581 1585 1588 1583 1571 1572 1558 1549 1547 1547 1548 1550 1551 1551 1551 1550 1548 1546 1544 1541 1539 1536 1533 1530 1527 1524 1521 1518 1515 1512 1508 1505 1502 1499 1497 1494 1491 1489 1487 1485 1483 1482 1482 1482 1482 1483 1484
1559 1566 1568 1580 1580 1585 1577 1566 1553 1548 1547 1547 1547 1548 1549 1549 1549 1548 1547 1545 1543 1541 1538 1535 1533 1530 1527 1524 1521 1518 1515 1512 1509 1506 1504 1501 1498 1495 1492 1489 1487 1484 1482 1481 1479 1479 1478 1479 1479
1555 1563 1573 1579 1584 1588 1580 1572 1563 1548 1547 1546 1545 1545 1546 1547 1547 1546 1545 1544 1542 1540 1537 1535 1532 1530 1527 1524 1521 1518 1515 1512 1510 1507 1504 1501 1498 1495 1492 1489 1486 1484 1482 1480 1478 1477 1476 1476 1476
1559 1565 1573 1582 1581 1590 1589 1575 1549 1545 1542 1542 1541 1542 1543 1544 1545 1544 1543 1542 1541 1539 1536 1534 1532 1529 1527 1524 1521 1518 1515 1513 1510 1507 1504 1501 1498 1495 1492 1489 1486 1484 1482 1479 1478 1476 1475 1474 1474
1553 1558 1569 1577 1580 1586 1589 1576 1541 1540 1538 1538 1538 1539 1540 1541 1542 1542 1541 1540 1539 1537 1535 1533 1531 1529 1526 1524 1521 1518 1515 1513 1510 1507 1504 1501 1498 1495 1492 1489 1486 1484 1481 1479 1477 1475 1474 1473 1472